This is the latest recevied weather packets stored in our database for station/object K7KAZ. If no packets are shown the sender has not sent any weather packets the latest 10 day(s).
| Time | Temp. | Humidity | Pressure | Rain* | Wind** | Luminosity | Snow |
|---|---|---|---|---|---|---|---|
| 1778061456 | 16.11° C | 43% | 1016.3 hPa | 0 mm | - | 0 W/m² | - |
| 1778061152 | 16.11° C | 44% | 1016.2 hPa | 0 mm | - | 0 W/m² | - |
| 1778060849 | 16.11° C | 44% | 1016.3 hPa | 0 mm | - | 0 W/m² | - |
| 1778060547 | 15.56° C | 44% | 1016.3 hPa | 0 mm | - | 0 W/m² | - |
| 1778060246 | 15.56° C | 45% | 1016.5 hPa | 0 mm | - | 0 W/m² | - |
| 1778059943 | 15.56° C | 45% | 1016.5 hPa | 0 mm | - | 0 W/m² | - |
| 1778059641 | 15.56° C | 45% | 1016.4 hPa | 0 mm | - | 0 W/m² | - |
| 1778059338 | 15.56° C | 47% | 1016.2 hPa | 0 mm | - | 0 W/m² | - |
| 1778059035 | 15.56° C | 48% | 1016.3 hPa | 0 mm | - | 0 W/m² | - |
| 1778058732 | 15.56° C | 49% | 1016.3 hPa | 0 mm | - | 0 W/m² | - |
| 1778058430 | 16.11° C | 48% | 1016.4 hPa | 0 mm | - | 0 W/m² | - |
| 1778058127 | 16.11° C | 46% | 1016.3 hPa | 0 mm | - | 0 W/m² | - |
| 1778057824 | 16.11° C | 45% | 1016.2 hPa | 0 mm | - | 0 W/m² | - |
| 1778057520 | 16.11° C | 45% | 1016.2 hPa | 0 mm | - | 0 W/m² | - |
| 1778057217 | 16.11° C | 46% | 1016.1 hPa | 0 mm | - | 0 W/m² | - |
| 1778056913 | 16.11° C | 44% | 1016 hPa | 0 mm | - | 0 W/m² | - |
| 1778056610 | 16.11° C | 45% | 1016.1 hPa | 0 mm | - | 0 W/m² | - |
| 1778056308 | 16.11° C | 45% | 1015.9 hPa | 0 mm | - | 0 W/m² | - |
| 1778056005 | 16.11° C | 43% | 1016.1 hPa | 0 mm | - | 0 W/m² | - |
| 1778055699 | 16.67° C | 43% | 1016 hPa | 0 mm | - | 0 W/m² | - |
| 1778055398 | 17.22° C | 42% | 1016 hPa | 0 mm | - | 0 W/m² | - |
| 1778055096 | 16.67° C | 46% | 1016.1 hPa | 0 mm | - | 0 W/m² | - |
| 1778054793 | 16.67° C | 44% | 1016 hPa | 0 mm | - | 0 W/m² | - |
| 1778054490 | 17.78° C | 42% | 1016.1 hPa | 0 mm | - | 0 W/m² | - |
| 1778054187 | 17.78° C | 40% | 1016.1 hPa | 0 mm | - | 0 W/m² | - |
* Rain latest hour (hover to see other rain measurements)
** Current wind speed in m/s (hover to see current wind gust speed)